Satellite-Ground Cal/Val Site Overpasses Predictions

Prediction of Satellite NPP Overpassing Cal/Val Site: Antarctic Dome C

Ground Cal/Val Site Location: Latitude: -75.10, Longitude: 123.35; Satellite-Ground Site NADIR distance within 100 km.

Table of predicted overpasses for the next 14.0 days since TLE Epoch: 1/20/2024
Interval Starting Time Ending Time Minimum Distance Time Minimum Distance (km)
1 01/20/2024 07:19:36 01/20/2024 07:19:56 01/20/2024 07:19:46 72.71
2 01/22/2024 15:01:52 01/22/2024 15:02:15 01/22/2024 15:02:04 59.63
3 01/23/2024 14:43:02 01/23/2024 14:43:28 01/23/2024 14:43:15 49.57
4 01/24/2024 07:44:44 01/24/2024 07:45:04 01/24/2024 07:44:54 72.56
5 01/25/2024 07:25:51 01/25/2024 07:26:18 01/25/2024 07:26:04 35.27
6 01/27/2024 15:08:19 01/27/2024 15:08:24 01/27/2024 15:08:22 97.53
7 01/28/2024 14:49:18 01/28/2024 14:49:47 01/28/2024 14:49:32 13.80
8 01/30/2024 07:32:07 01/30/2024 07:32:36 01/30/2024 07:32:21 3.50
